User: anonymous   Login
Location: Vale
(35.4830°N, 81.3830°W)
Time: 07:15:56
(UTC-04:00)
Language:

Oscar 11 - Orbit

View from above orbital plane
View from above orbital plane
View from above satellite
View from above satellite

Ground track
Ground track

The orbit data is extracted from the following two-line orbital elements,

1 14781U 84021B   16120.71538822  .00000223  00000-0  33970-4 0  9995
2 14781  97.7543 174.1892 0010012 110.5521 249.6768 14.82725171729074
Epoch (UTC): 29 April 2016 17:10:09
Eccentricity: 0.0010012
inclination: 97.7543°
perigee height: 614 km
apogee height: 628 km
right ascension of ascending node: 174.1892°
argument of perigee: 110.5521°
revolutions per day: 14.82725171
mean anomaly at epoch: 249.6768°
orbit number at epoch: 72907

The dashed part of the orbit path shows where the satellite is in the earth's shadow,  

DLR